AirNav   Bose Proflight Series 2 Wireless viation Headset
 
 1116 users online  

5GA4 Air Acres Airport
Woodstock, Georgia, USA

GOING TO WOODSTOCK?


FAA INFORMATION EFFECTIVE 10 OCTOBER 2019

Location

FAA Identifier: 5GA4
Lat/Long: 34-06-21.3530N 084-26-54.7430W
34-06.355883N 084-26.912383W
34.1059314,-84.4485397
(estimated)
Elevation: 918 ft. / 279.8 m (surveyed)
Variation: 02W (1985)
From city: 3 miles E of WOODSTOCK, GA
Time zone: UTC -4 (UTC -5 during Standard Time)
Zip code: 30188

Airport Operations

Airport use: Private use. Permission required prior to landing
Activation date: 10/1978
Control tower: no
ARTCC: ATLANTA CENTER
FSS: MACON FLIGHT SERVICE STATION
Attendance: UNATNDD
Wind indicator: yes
Segmented circle: no

Airport Communications

WX AWOS-3PT at RYY (9 nm SW): PHONE 770-425-3406
WX AWOS-3 at CNI (12 nm N): 119.825 (770-704-6235)
WX ASOS at PDK (16 nm SE): PHONE 770-457-1691
WX ASOS at VPC (20 nm W): 120.525 (770-606-0375)
WX ASOS at FTY (20 nm S): PHONE 404-696-5660

Nearby radio navigation aids

VOR radial/distance  VOR name  Freq  Var
PDKr337/15.7PEACHTREE VOR/DME116.6005W
ATLr004/28.6ATLANTA VORTAC116.9005W
RMGr095/33.5ROME VORTAC115.4001E

 
NDB name  Hdg/Dist  Freq  Var  ID
CHERO173/9.041505WDJD -.. .--- -..
CARTERSVILLE110/20.430804WEVZ . ...- --..
FLOWERY BRANCH261/27.536503WFKV ..-. -.- ...-

Airport Services

Runway Information

Runway 18/36

Dimensions: 2000 x 100 ft. / 610 x 30 m
Surface: turf
RUNWAY 18  RUNWAY 36
Traffic pattern: leftleft
Obstructions: hill, 1500 ft. from runwayhill, 2000 ft. from runway
AND PLINES.

Airport Ownership and Management from official FAA records

Ownership: Privately-owned
Owner: AAPO
296 AIR ACRES WAY
WOODSTOCK, GA 30188
Manager: AAPO
296 AIR ACRES WAY
WOODSTOCK, GA 30188

Airport Operational Statistics

Aircraft based on the field: 26
Single engine airplanes: 24
Multi engine airplanes: 1
Helicopters: 1
    

Additional Remarks

HIGH TENSION PLINES LESS THAN 1 MILE FM END OF RY 36.
UPSLOPE TERRAIN WITH TALL TREES LESS THAN 1 MILE FM END OF RY 18.
PPR BEFORE LANDING.
FOR CD CTC ATLANTA APCH AT 678-364-6131.

Instrument Procedures

There are no published instrument procedures at 5GA4.

Some nearby airports with instrument procedures:

KRYY - Cobb County International Airport-McCollum Field (9 nm SW)
KMGE - Dobbins Air Reserve Base (12 nm S)
KCNI - Cherokee County Airport (12 nm N)
KPDK - Dekalb-Peachtree Airport (16 nm SE)
KVPC - Cartersville Airport (20 nm W)
KFTY - Fulton County Airport-Brown Field (20 nm S)
 
Loc | Ops | Rwys | IFR | FBO | Links
Com | Nav | Svcs | Stats | Notes
Area around 5GA4 (Air Acres Airport)
 
Road maps at: MapQuest Bing Google
 
Aerial photo
WARNING: Photo may not be current or correct
Aerial photo of 5GA4 (Air Acres Airport)
Photo taken 04-Aug-2018
looking north.

Do you have a better or more recent aerial photo of Air Acres Airport that you would like to share? If so, please send us your photo.

 
Sectional chart

 
Airport distance calculator
Flying to Air Acres Airport? Find the distance to fly.

From to 5GA4

Sunrise and sunset
Times for 22-Oct-2019
 Local
(UTC-4)
 Zulu
(UTC)
Morning civil twilight07:2411:24
Sunrise07:5011:50
Sunset18:5522:55
Evening civil twilight19:2023:20

Current date and time
Zulu (UTC)  22-Oct-2019 22:21:11
Local (UTC-4)  22-Oct-2019 18:21:11
 
METAR
KRYY 
9nm SW 
222150Z 28010G18KT 10SM CLR 20/01 A2998 RMK AO2 SLP874 P0001 T02000011 $
KMGE 
12nm S 
222156Z 29011KT 10SM SCT250 20/00 A2997 RMK AO2A SLP143 T01990003 $
KCNI 
12nm N 
222150Z AUTO 26007KT 230V290 10SM CLR 19/00 A2999 RMK AO2
KPDK 
15nm SE 
222153Z 27011G17KT 10SM CLR 19/01 A2997 RMK AO2 SLP138 T01940006
KFTY 
20nm S 
222153Z 27010G17KT 10SM CLR 21/01 A2997 RMK AO2 SLP143 T02060006
TAF
KRYY 
9nm SW 
221720Z 2218/2318 29012G18KT P6SM FEW250 FM230000 29006KT P6SM SKC FM231400 34005KT P6SM SKC
KMGE 
12nm S 
221300Z 2213/2319 30012KT 8000 BR BKN019 QNH2995INS BECMG 2213/2214 30012KT 9999 NSW SCT020 BKN080 BKN250 QNH2995INS BECMG 2216/2217 30015G25KT 9999 FEW040 FEW250 QNH2995INS BECMG 2223/2224 29009KT 9999 SKC QNH3000INS WND 30007KT AFT 2302 TX20/2220Z TN05/2312Z
KPDK 
15nm SE 
221720Z 2218/2318 29012G18KT P6SM FEW250 FM230000 29006KT P6SM SKC FM231400 34004KT P6SM SKC
KFTY 
20nm S 
221720Z 2218/2318 30012G18KT P6SM FEW250 FM230000 30005KT P6SM SKC FM231400 34005KT P6SM SKC
NOTAMs
Click for the latest NOTAMs
NOTAMs are issued by the DoD/FAA and will open in a separate window not controlled by AirNav.

 

 
 

Would you like to see your business listed on this page?

 If your business provides an interesting product or service to pilots, flight crews, aircraft, or users of the Air Acres Airport, you should consider listing it here.  To start the listing process, click on the button below
 
Add a business
 

Other Pages about Air Acres Airport

Update a link
 
Copyright © AirNav, LLC. All rights reserved. Privacy Policy  Contact